TIFM7: Elk River, Tiff City, MO

Data processed at Sat Mar 10 2018 23:39


All information presented herein is the property of the government of the United States of America and may be revised or deleted at any time without prior notice.
Dissemination of this information without the expressed written consent of the Public Affairs Office, Tulsa District U.S. Army Corps of Engineers is strictly prohibited.
These data are gathered electronically and, as presented, have not undergone any form of quality control. These data are not guaranteed to be valid or correct.
Go to home page.
Go to station list.

Upstream stations:

Downstream station:
Previous Day
Next Day
Current Day
    
SHEF ID:       TIFM7     Elk River near Tiff City, Mo
STATION TYPE:  

               PRECIP     STAGE  STAGE(2)  RIV-FLOW   VOLTAGE
                   in        ft        ft       cfs      volt
              Ccp-Rev   Ccp-Rev   Ccp-Rev   Ccp-Rev   Ccp-Rev
(US/Central)
03/08 00:00      0.00      4.58      4.53       896     12.80
03/08 01:00      0.00      4.57      4.52       890     12.80
03/08 02:00      0.00      4.56      4.51       885     12.80
03/08 03:00      0.00      4.55      4.50       880     12.80
03/08 04:00      0.00      4.55      4.49       880     12.70
03/08 05:00      0.00      4.54      4.49       874     12.70
03/08 06:00      0.00      4.53      4.48       869     12.70
03/08 07:00      0.00      4.53      4.47       869     13.20
03/08 08:00      0.00      4.53      4.46       869     14.80
03/08 09:00      0.00      4.51      4.46       859     14.50
03/08 10:00      0.00      4.50      4.45       854     14.70
03/08 11:00      0.00      4.50      4.44       854     14.50
03/08 12:00      0.00      4.51      4.45       859     14.10
03/08 13:00      0.00      4.50      4.43       854     14.00
03/08 14:00      0.00      4.49      4.44       848     14.60
03/08 15:00      0.00      4.49      4.41       848     14.00
03/08 16:00      0.00      4.47      4.41       838     14.30
03/08 17:00      0.00      4.47      4.40       838     13.10
03/08 18:00      0.00      4.47      4.40       838     13.00
03/08 19:00      0.00      4.45      4.37       828     13.00
03/08 20:00      0.00      4.45      4.38       828     13.00
03/08 21:00      0.00      4.44      4.36       823     12.90
03/08 22:00      0.00      4.43      4.34       818     12.90
03/08 23:00      0.00      4.42      4.36       813     12.90